Location: Cointrin
(46.2167°N, 6.1167°E)
Time: 12:21:54
(UTC+00:00)

SKYMED 2 - Visible Passes

Search period start: 25 September 2023 00:00
Search period end: 05 October 2023 00:00
Orbit: 621 x 623 km, 97.9° (Epoch: 24 September)

Date Brightness Start Highest point End Pass type
(mag) Time Alt. Az. Time Alt. Az. Time Alt. Az.
25 Sep 4.3 04:25:17 10° SSE 04:29:32 58° ENE 04:33:49 10° N visible
25 Sep 6.9 19:24:09 10° NW 19:25:58 12° WNW 19:27:46 10° W visible
26 Sep 7.1 03:10:46 10° ENE 03:12:04 11° ENE 03:13:22 10° NE visible
26 Sep 3.6 04:43:11 10° SSE 04:47:31 88° ENE 04:51:54 10° NNW visible
26 Sep 4.1 18:04:07 10° N 18:08:26 65° WNW 18:12:43 10° SSW visible
27 Sep 6.7 03:27:10 10° E 03:29:50 16° ENE 03:32:32 10° NNE visible
27 Sep 5.0 18:22:16 10° N 18:26:23 42° WNW 18:30:29 10° SW visible
28 Sep 6.1 03:44:15 10° ESE 03:47:41 23° ENE 03:51:06 10° NNE visible
28 Sep 5.8 18:40:32 10° N 18:44:17 29° WNW 18:48:01 10° SW visible
29 Sep 5.4 04:01:39 10° SE 04:05:32 33° ENE 04:09:28 10° N visible
29 Sep 6.4 18:58:57 10° NNW 19:02:08 20° WNW 19:05:19 10° WSW visible
30 Sep 4.6 04:19:16 10° SE 04:23:28 50° ENE 04:27:40 10° N visible
30 Sep 3.5 17:39:59 10° NNE 17:44:20 71° ESE 17:48:39 10° S visible
30 Sep 6.8 19:17:40 10° NNW 19:19:56 14° WNW 19:22:13 10° W visible
01 Oct 3.8 04:37:06 10° SSE 04:41:25 77° ENE 04:45:47 10° N visible
01 Oct 3.8 17:57:59 10° N 18:02:20 75° WNW 18:06:40 10° SSW visible
02 Oct 6.8 03:21:29 10° E 03:23:48 14° ENE 03:26:08 10° NNE visible
02 Oct 3.5 04:55:06 10° S 04:59:25 70° WSW 05:03:47 10° NNW visible
02 Oct 4.6 18:16:05 10° N 18:20:17 49° WNW 18:24:28 10° SW visible
03 Oct 6.3 03:38:24 10° ESE 03:41:37 20° ENE 03:44:49 10° NNE visible
03 Oct 5.5 18:34:18 10° N 18:38:12 33° WNW 18:42:04 10° SW visible
04 Oct 5.7 03:55:42 10° SE 03:59:27 29° ENE 04:03:13 10° N visible
04 Oct 6.1 18:52:39 10° NNW 18:56:03 23° WNW 18:59:27 10° WSW visible
